Location: Songkhla
(7.2000°N, 100.6000°E)
Time: 02:26:30
(UTC+07:00)

BRICSAT 2 - Pass Details

Date: 23 June 2021
Orbit: 295 x 638 km, 28.5° (Epoch: 28 July)

Event Time Altitude Azimuth Distance (km) Brightness Sun altitude
Rises 18:49:57 0° 316° (NW) 2,348 ? -4.0°
Reaches altitude 10° 18:52:10 10° 329° (NNW) 1,554 ? -4.5°
Maximum altitude 18:55:16 27° 29° (NNE) 945 ? -5.2°
Drops below altitude 10° 18:58:44 10° 88° (E) 1,750 ? -5.9°
Enters shadow 18:59:46 - 94° (E) 2,114 ? -6.2°
Sets 19:01:23 0° 100° (E) 2,715 - -6.5°
